| time (UTC) | temp F | wind direction | speed knots | gust knots | rain 1hr in | rain 24hr in | rain mn in | humidity % | barometer mb |
| 20260906113708 | 79 | 165 | 0.0 | 0.9 | 0.00 | 0.00 | 0.00 | 62 | 1012.5 |
| 20260906113207 | 79 | 198 | 1.7 | 1.7 | 0.00 | 0.00 | 0.00 | 62 | 1012.5 |
| 20260906112707 | 79 | 229 | 1.7 | 1.7 | 0.00 | 0.00 | 0.00 | 61 | 1012.6 |
| 20260906112204 | 79 | 233 | 2.6 | 2.6 | 0.00 | 0.00 | 0.00 | 61 | 1012.4 |
| 20260906111703 | 79 | 345 | 0.0 | 0.9 | 0.00 | 0.00 | 0.00 | 61 | 1012.4 |
| 20260906111158 | 79 | 330 | 0.0 | 1.7 | 0.00 | 0.00 | 0.00 | 61 | 1012.4 |
| 20260906110653 | 78 | 249 | 0.9 | 1.7 | 0.00 | 0.00 | 0.00 | 62 | 1012.6 |
| 20260906110148 | 78 | 331 | 0.0 | 0.0 | 0.00 | 0.00 | 0.00 | 61 | 1012.4 |
| 20260906105642 | 78 | 331 | 0.0 | 1.7 | 0.00 | 0.00 | 0.00 | 61 | 1012.3 |
| 20260906105138 | 79 | 180 | 0.0 | 1.7 | 0.00 | 0.00 | 0.00 | 61 | 1012.3 |
| 20260906104638 | 78 | 83 | 0.0 | 0.9 | 0.00 | 0.00 | 0.00 | 61 | 1012.3 |
| 20260906104137 | 78 | 174 | 0.0 | 1.7 | 0.00 | 0.00 | 0.00 | 62 | 1012.2 |
| 20260906103635 | 78 | 180 | 0.0 | 0.0 | 0.00 | 0.00 | 0.00 | 62 | 1012.3 |
| 20260906103130 | 78 | 0 | 0.0 | 0.0 | 0.00 | 0.00 | 0.00 | 62 | 1012.1 |
| 20260906102626 | 78 | 345 | 0.0 | 0.0 | 0.00 | 0.00 | 0.00 | 62 | 1012.1 |
| 20260906102120 | 78 | 195 | 0.0 | 0.0 | 0.00 | 0.00 | 0.00 | 62 | 1012.2 |
| 20260906101615 | 78 | 0 | 0.0 | 0.0 | 0.00 | 0.00 | 0.00 | 61 | 1012.3 |
| 20260906101114 | 79 | 352 | 0.0 | 0.9 | 0.00 | 0.00 | 0.00 | 61 | 1012.2 |
| 20260906100610 | 79 | 90 | 0.0 | 1.7 | 0.00 | 0.00 | 0.00 | 59 | 1011.9 |
| 20260906100105 | 80 | 172 | 0.0 | 1.7 | 0.00 | 0.00 | 0.00 | 59 | 1012.3 |
| 20260906095604 | 80 | 180 | 0.0 | 1.7 | 0.00 | 0.00 | 0.00 | 58 | 1012.0 |
| 20260906095100 | 80 | 161 | 0.0 | 1.7 | 0.00 | 0.00 | 0.00 | 59 | 1012.2 |
| 20260906094559 | 80 | 190 | 0.0 | 2.6 | 0.00 | 0.00 | 0.00 | 59 | 1012.2 |
| 20260906094055 | 80 | 180 | 0.0 | 0.9 | 0.00 | 0.00 | 0.00 | 59 | 1012.3 |
| 20260906093550 | 80 | 180 | 0.0 | 1.7 | 0.00 | 0.00 | 0.00 | 59 | 1012.2 |
| 20260906093045 | 78 | 212 | 1.7 | 1.7 | 0.00 | 0.00 | 0.00 | 61 | 1012.3 |
| 20260906092540 | 78 | 337 | 0.0 | 0.0 | 0.00 | 0.00 | 0.00 | 62 | 1012.2 |
| 20260906092036 | 79 | 0 | 0.0 | 1.7 | 0.00 | 0.00 | 0.00 | 61 | 1012.2 |
| 20260906091531 | 80 | 66 | 0.0 | 0.9 | 0.00 | 0.00 | 0.00 | 58 | 1012.3 |
| 20260906091027 | 80 | 233 | 0.0 | 1.7 | 0.00 | 0.00 | 0.00 | 58 | 1012.1 |
| 20260906090522 | 80 | 257 | 0.0 | 1.7 | 0.00 | 0.00 | 0.00 | 58 | 1012.4 |
| 20260906090017 | 79 | 255 | 1.7 | 1.7 | 0.00 | 0.00 | 0.00 | 61 | 1012.3 |
| 20260906085516 | 78 | 188 | 0.0 | 0.9 | 0.00 | 0.00 | 0.00 | 63 | 1012.2 |
| 20260906085015 | 78 | 63 | 0.0 | 3.5 | 0.00 | 0.00 | 0.00 | 64 | 1012.3 |
| 20260906084510 | 78 | 52 | 2.6 | 4.3 | 0.00 | 0.00 | 0.00 | 65 | 1012.3 |
| 20260906084009 | 79 | 113 | 2.6 | 2.6 | 0.00 | 0.00 | 0.00 | 64 | 1012.2 |
| 20260906083505 | 78 | 194 | 0.0 | 0.0 | 0.00 | 0.00 | 0.00 | 63 | 1011.8 |
| 20260906083004 | 78 | 194 | 0.0 | 0.9 | 0.00 | 0.00 | 0.00 | 63 | 1012.0 |
| 20260906082459 | 78 | 0 | 0.0 | 2.6 | 0.00 | 0.00 | 0.00 | 65 | 1011.8 |
| 20260906081955 | 79 | 180 | 0.0 | 0.9 | 0.00 | 0.00 | 0.00 | 63 | 1012.0 |
| 20260906081450 | 79 | 210 | 1.7 | 1.7 | 0.00 | 0.00 | 0.00 | 62 | 1012.0 |
| 20260906080946 | 79 | 254 | 0.0 | 1.7 | 0.00 | 0.00 | 0.00 | 61 | 1012.0 |
| 20260906080442 | 80 | 203 | 0.0 | 1.7 | 0.00 | 0.00 | 0.00 | 59 | 1012.1 |
| 20260906075937 | 80 | 198 | 0.0 | 1.7 | 0.00 | 0.00 | 0.00 | 57 | 1012.2 |
| 20260906075431 | 81 | 254 | 0.0 | 1.7 | 0.00 | 0.00 | 0.00 | 55 | 1012.4 |
| 20260906074927 | 81 | 180 | 0.0 | 0.0 | 0.00 | 0.00 | 0.00 | 54 | 1012.6 |
| 20260906074421 | 81 | 203 | 0.0 | 1.7 | 0.00 | 0.00 | 0.00 | 52 | 1012.6 |
| 20260906073920 | 81 | 240 | 2.6 | 2.6 | 0.00 | 0.00 | 0.00 | 52 | 1012.4 |
| 20260906073415 | 82 | 352 | 0.0 | 0.0 | 0.00 | 0.00 | 0.00 | 52 | 1012.7 |
| 20260906072911 | 82 | 165 | 0.0 | 0.9 | 0.00 | 0.00 | 0.00 | 52 | 1012.7 |
| 20260906072406 | 82 | 270 | 0.0 | 1.7 | 0.00 | 0.00 | 0.00 | 52 | 1012.6 |
| 20260906071902 | 82 | 250 | 0.0 | 1.7 | 0.00 | 0.00 | 0.00 | 52 | 1012.5 |
| 20260906071357 | 82 | 239 | 1.7 | 2.6 | 0.00 | 0.00 | 0.00 | 52 | 1012.4 |
| 20260906070853 | 82 | 246 | 0.0 | 0.9 | 0.00 | 0.00 | 0.00 | 51 | 1012.6 |
| 20260906070349 | 81 | 160 | 0.0 | 1.7 | 0.00 | 0.00 | 0.00 | 52 | 1013.0 |
| 20260906065844 | 81 | 234 | 0.9 | 2.6 | 0.00 | 0.00 | 0.00 | 52 | 1013.0 |
| 20260906065339 | 81 | 229 | 0.0 | 1.7 | 0.00 | 0.00 | 0.00 | 52 | 1013.1 |
| 20260906064834 | 81 | 165 | 0.0 | 2.6 | 0.00 | 0.00 | 0.00 | 51 | 1013.0 |
| 20260906064330 | 81 | 200 | 0.9 | 2.6 | 0.00 | 0.00 | 0.00 | 51 | 1013.2 |
| 20260906063825 | 80 | 162 | 0.0 | 1.7 | 0.00 | 0.00 | 0.00 | 51 | 1013.4 |
| 20260906063320 | 80 | 196 | 0.0 | 1.7 | 0.00 | 0.00 | 0.00 | 51 | 1013.3 |
| 20260906062815 | 79 | 157 | 1.7 | 2.6 | 0.00 | 0.00 | 0.00 | 53 | 1013.3 |
| 20260906062315 | 78 | 225 | 2.6 | 2.6 | 0.00 | 0.00 | 0.00 | 55 | 1013.2 |
| 20260906061810 | 78 | 169 | 1.7 | 1.7 | 0.00 | 0.00 | 0.00 | 57 | 1013.3 |
| 20260906061307 | 78 | 151 | 0.9 | 2.6 | 0.00 | 0.00 | 0.00 | 57 | 1013.3 |
| 20260906060801 | 78 | 225 | 3.5 | 3.5 | 0.00 | 0.00 | 0.00 | 55 | 1013.2 |
| 20260906060259 | 78 | 195 | 0.0 | 2.6 | 0.00 | 0.00 | 0.00 | 55 | 1013.0 |
| 20260906055754 | 78 | 157 | 0.9 | 3.5 | 0.00 | 0.00 | 0.00 | 53 | 1013.1 |
| 20260906055249 | 78 | 180 | 1.7 | 3.5 | 0.00 | 0.00 | 0.00 | 52 | 1012.9 |
| 20260906054745 | 79 | 175 | 2.6 | 3.5 | 0.00 | 0.00 | 0.00 | 50 | 1012.5 |
| 20260906054240 | 80 | 15 | 0.0 | 0.9 | 0.00 | 0.00 | 0.00 | 50 | 1012.9 |
| 20260906053737 | 80 | 29 | 0.0 | 1.7 | 0.00 | 0.00 | 0.00 | 50 | 1013.0 |
| 20260906053232 | 80 | 0 | 0.0 | 2.6 | 0.00 | 0.00 | 0.00 | 50 | 1012.9 |
| 20260906052727 | 79 | 346 | 0.9 | 1.7 | 0.00 | 0.00 | 0.00 | 50 | 1012.6 |
| 20260906052223 | 79 | 10 | 1.7 | 1.7 | 0.00 | 0.00 | 0.00 | 50 | 1012.9 |
| 20260906051720 | 78 | 15 | 2.6 | 2.6 | 0.00 | 0.00 | 0.00 | 50 | 1012.7 |
| 20260906051219 | 79 | 6 | 2.6 | 2.6 | 0.00 | 0.00 | 0.00 | 50 | 1013.0 |
| 20260906050714 | 79 | 7 | 2.6 | 2.6 | 0.00 | 0.00 | 0.00 | 50 | 1012.9 |
| 20260906050210 | 80 | 3 | 2.6 | 3.5 | 0.00 | 0.00 | 0.00 | 49 | 1013.0 |
| 20260906045708 | 80 | 340 | 0.9 | 3.5 | 0.00 | 0.00 | 0.00 | 49 | 1013.1 |
| 20260906045203 | 79 | 343 | 2.6 | 4.3 | 0.00 | 0.00 | 0.00 | 50 | 1013.1 |
| 20260906044659 | 80 | 337 | 0.0 | 0.9 | 0.00 | 0.00 | 0.00 | 49 | 1013.1 |
| 20260906044154 | 79 | 342 | 0.0 | 0.0 | 0.00 | 0.00 | 0.00 | 50 | 1013.1 |
| 20260906043650 | 79 | 342 | 0.0 | 0.0 | 0.00 | 0.00 | 0.00 | 49 | 1013.0 |
| 20260906043145 | 80 | 342 | 0.9 | 1.7 | 0.00 | 0.00 | 0.00 | 48 | 1012.7 |
| 20260906042645 | 80 | 14 | 0.0 | 0.0 | 0.00 | 0.00 | 0.00 | 48 | 1013.1 |
| 20260906042139 | 81 | 10 | 2.6 | 2.6 | 0.00 | 0.00 | 0.00 | 48 | 1013.1 |
| 20260906041635 | 81 | 345 | 0.0 | 0.0 | 0.00 | 0.00 | 0.00 | 48 | 1012.9 |
| 20260906041130 | 82 | 0 | 0.0 | 0.9 | 0.00 | 0.00 | 0.00 | 47 | 1013.0 |
| 20260906040626 | 82 | 352 | 0.0 | 0.0 | 0.00 | 0.00 | 0.00 | 47 | 1013.1 |
| 20260906040121 | 82 | 331 | 0.9 | 0.9 | 0.00 | 0.00 | 0.00 | 48 | 1012.9 |
| 20260906035616 | 82 | 240 | 0.0 | 0.0 | 0.00 | 0.00 | 0.00 | 47 | 1012.9 |
| 20260906035112 | 82 | 240 | 0.0 | 0.0 | 0.00 | 0.00 | 0.00 | 47 | 1012.7 |
| 20260906034612 | 82 | 240 | 0.0 | 1.7 | 0.00 | 0.00 | 0.00 | 47 | 1012.6 |
| 20260906034107 | 83 | 200 | 0.0 | 1.7 | 0.00 | 0.00 | 0.00 | 46 | 1012.5 |
| 20260906033603 | 83 | 232 | 0.0 | 1.7 | 0.00 | 0.00 | 0.00 | 46 | 1012.7 |
| 20260906033057 | 83 | 246 | 0.0 | 0.0 | 0.00 | 0.00 | 0.00 | 46 | 1012.7 |
| 20260906032554 | 84 | 154 | 0.0 | 0.0 | 0.00 | 0.00 | 0.00 | 46 | 1012.6 |
| 20260906032053 | 84 | 154 | 0.0 | 0.0 | 0.00 | 0.00 | 0.00 | 47 | 1012.4 |
| 20260906031549 | 83 | 154 | 0.0 | 0.0 | 0.00 | 0.00 | 0.00 | 47 | 1012.4 |
| 20260906031045 | 84 | 154 | 0.0 | 0.0 | 0.00 | 0.00 | 0.00 | 46 | 1012.3 |
| 20260906030543 | 83 | 106 | 0.0 | 0.0 | 0.00 | 0.00 | 0.00 | 47 | 1012.3 |
| 20260906030043 | 83 | 81 | 0.0 | 0.0 | 0.00 | 0.00 | 0.00 | 47 | 1012.2 |
| 20260906025538 | 83 | 81 | 0.0 | 0.0 | 0.00 | 0.00 | 0.00 | 47 | 1011.9 |
| 20260906025036 | 83 | 29 | 0.9 | 1.7 | 0.00 | 0.00 | 0.00 | 47 | 1011.6 |
| 20260906024531 | 83 | 90 | 0.0 | 1.7 | 0.00 | 0.00 | 0.00 | 47 | 1011.9 |
| 20260906024025 | 83 | 8 | 0.0 | 0.9 | 0.00 | 0.00 | 0.00 | 47 | 1011.5 |
| 20260906023522 | 83 | 45 | 1.7 | 2.6 | 0.00 | 0.00 | 0.00 | 47 | 1011.2 |
| 20260906023016 | 84 | 58 | 2.6 | 2.6 | 0.00 | 0.00 | 0.00 | 47 | 1010.9 |
| 20260906022511 | 84 | 32 | 0.0 | 1.7 | 0.00 | 0.00 | 0.00 | 46 | 1011.0 |
| 20260906022007 | 84 | 12 | 0.9 | 1.7 | 0.00 | 0.00 | 0.00 | 46 | 1011.0 |
| 20260906021502 | 84 | 23 | 1.7 | 2.6 | 0.00 | 0.00 | 0.00 | 46 | 1010.9 |
| 20260906020956 | 84 | 53 | 1.7 | 2.6 | 0.00 | 0.00 | 0.00 | 46 | 1011.0 |
| 20260906020445 | 85 | 54 | 0.9 | 1.7 | 0.00 | 0.00 | 0.00 | 45 | 1011.0 |
| 20260906015944 | 85 | 63 | 0.0 | 0.9 | 0.00 | 0.00 | 0.00 | 45 | 1010.8 |
| 20260906015444 | 85 | 74 | 0.0 | 0.0 | 0.00 | 0.00 | 0.00 | 44 | 1010.9 |
| 20260906014944 | 86 | 82 | 0.0 | 1.7 | 0.00 | 0.00 | 0.00 | 44 | 1010.7 |
| 20260906014438 | 87 | 23 | 0.0 | 0.9 | 0.00 | 0.00 | 0.00 | 44 | 1010.4 |
| 20260906013934 | 87 | 342 | 1.7 | 3.5 | 0.00 | 0.00 | 0.00 | 43 | 1010.3 |
| 20260906013430 | 87 | 12 | 1.7 | 4.3 | 0.00 | 0.00 | 0.00 | 43 | 1010.7 |
| 20260906012926 | 87 | 3 | 4.3 | 4.3 | 0.00 | 0.00 | 0.00 | 43 | 1010.2 |
| 20260906012425 | 88 | 3 | 1.7 | 4.3 | 0.00 | 0.00 | 0.00 | 42 | 1010.6 |
| 20260906011924 | 88 | 15 | 2.6 | 2.6 | 0.00 | 0.00 | 0.00 | 42 | 1010.4 |
| 20260906011420 | 88 | 337 | 0.0 | 2.6 | 0.00 | 0.00 | 0.00 | 41 | 1010.4 |
| 20260906010916 | 89 | 0 | 0.0 | 1.7 | 0.00 | 0.00 | 0.00 | 40 | 1010.3 |
| 20260906010411 | 89 | 337 | 0.0 | 1.7 | 0.00 | 0.00 | 0.00 | 40 | 1010.2 |
| 20260906005907 | 89 | 8 | 0.9 | 4.3 | 0.00 | 0.00 | 0.00 | 40 | 1010.2 |
| 20260906005406 | 90 | 262 | 0.0 | 2.6 | 0.00 | 0.00 | 0.00 | 40 | 1010.2 |
| 20260906004904 | 89 | 338 | 1.7 | 2.6 | 0.00 | 0.00 | 0.00 | 40 | 1010.2 |
| 20260906004359 | 90 | 270 | 0.0 | 2.6 | 0.00 | 0.00 | 0.00 | 40 | 1010.2 |
| 20260906003855 | 90 | 350 | 1.7 | 3.5 | 0.00 | 0.00 | 0.00 | 40 | 1010.3 |
| 20260906003350 | 91 | 279 | 1.7 | 3.5 | 0.00 | 0.00 | 0.00 | 39 | 1010.2 |
| 20260906002846 | 92 | 342 | 0.0 | 2.6 | 0.00 | 0.00 | 0.00 | 38 | 1010.1 |
| 20260906002344 | 93 | 328 | 0.0 | 3.5 | 0.00 | 0.00 | 0.00 | 35 | 1010.1 |
| 20260906001840 | 92 | 298 | 2.6 | 3.5 | 0.00 | 0.00 | 0.00 | 35 | 1010.4 |
| 20260906001336 | 93 | 81 | 0.9 | 2.6 | 0.00 | 0.00 | 0.00 | 35 | 1010.1 |
| 20260906000831 | 93 | 35 | 0.0 | 2.6 | 0.00 | 0.00 | 0.00 | 35 | 1010.3 |
| 20260906000326 | 93 | 8 | 1.7 | 4.3 | 0.00 | 0.00 | 0.00 | 35 | 1010.3 |
| 20260905235825 | 93 | 307 | 3.5 | 7.0 | 0.00 | 0.00 | 0.00 | 35 | 1009.9 |
| 20260905235320 | 94 | 343 | 6.1 | 6.1 | 0.00 | 0.00 | 0.00 | 34 | 1010.1 |
| 20260905234815 | 94 | 355 | 0.0 | 2.6 | 0.00 | 0.00 | 0.00 | 34 | 1010.1 |
| 20260905234311 | 94 | 148 | 0.0 | 1.7 | 0.00 | 0.00 | 0.00 | 34 | 1009.9 |
| 20260905233805 | 95 | 342 | 1.7 | 3.5 | 0.00 | 0.00 | 0.00 | 33 | 1009.8 |
| 20260905233300 | 95 | 293 | 2.6 | 6.1 | 0.00 | 0.00 | 0.00 | 33 | 1009.9 |
| 20260905232759 | 95 | 220 | 1.7 | 4.3 | 0.00 | 0.00 | 0.00 | 32 | 1009.9 |
| 20260905232255 | 95 | 75 | 0.9 | 1.7 | 0.00 | 0.00 | 0.00 | 32 | 1009.9 |
| 20260905231751 | 96 | 0 | 0.0 | 1.7 | 0.00 | 0.00 | 0.00 | 32 | 1009.2 |
| 20260905231246 | 96 | 63 | 1.7 | 4.3 | 0.00 | 0.00 | 0.00 | 31 | 1009.6 |
| 20260905230742 | 96 | 312 | 0.0 | 5.2 | 0.00 | 0.00 | 0.00 | 31 | 1009.6 |
| 20260905230239 | 97 | 324 | 2.6 | 4.3 | 0.00 | 0.00 | 0.00 | 30 | 1009.7 |
| 20260905225734 | 97 | 334 | 0.0 | 5.2 | 0.00 | 0.00 | 0.00 | 30 | 1009.8 |
| 20260905225229 | 97 | 247 | 0.0 | 2.6 | 0.00 | 0.00 | 0.00 | 30 | 1009.5 |
| 20260905224728 | 97 | 186 | 0.0 | 4.3 | 0.00 | 0.00 | 0.00 | 31 | 1009.5 |
| 20260905224224 | 98 | 341 | 0.0 | 3.5 | 0.00 | 0.00 | 0.00 | 30 | 1009.8 |
| 20260905223720 | 99 | 73 | 0.0 | 2.6 | 0.00 | 0.00 | 0.00 | 30 | 1009.6 |
| 20260905223217 | 98 | 90 | 0.9 | 7.0 | 0.00 | 0.00 | 0.00 | 30 | 1009.8 |
| 20260905222712 | 98 | 294 | 2.6 | 2.6 | 0.00 | 0.00 | 0.00 | 28 | 1009.5 |
| 20260905222211 | 99 | 241 | 5.2 | 7.0 | 0.00 | 0.00 | 0.00 | 28 | 1009.7 |
| 20260905221707 | 99 | 90 | 0.0 | 0.9 | 0.00 | 0.00 | 0.00 | 28 | 1009.8 |
| 20260905221204 | 98 | 266 | 1.7 | 7.8 | 0.00 | 0.00 | 0.00 | 28 | 1009.6 |
| 20260905220659 | 100 | 255 | 0.0 | 5.2 | 0.00 | 0.00 | 0.00 | 27 | 1009.8 |
| 20260905220155 | 100 | 270 | 0.0 | 2.6 | 0.00 | 0.00 | 0.00 | 28 | 1009.8 |
| 20260905215654 | 100 | 251 | 1.7 | 3.5 | 0.00 | 0.00 | 0.00 | 28 | 1009.8 |
| 20260905215150 | 99 | 171 | 1.7 | 10.4 | 0.00 | 0.00 | 0.00 | 28 | 1009.9 |
| 20260905214646 | 100 | 99 | 2.6 | 4.3 | 0.00 | 0.00 | 0.00 | 27 | 1009.8 |
| 20260905214141 | 101 | 192 | 0.0 | 6.1 | 0.00 | 0.00 | 0.00 | 27 | 1010.1 |
| 20260905213637 | 99 | 232 | 1.7 | 7.0 | 0.00 | 0.00 | 0.00 | 28 | 1009.9 |
| 20260905213132 | 99 | 17 | 0.0 | 4.3 | 0.00 | 0.00 | 0.00 | 28 | 1010.0 |
| 20260905212627 | 100 | 230 | 0.0 | 13.0 | 0.00 | 0.00 | 0.00 | 28 | 1010.1 |
| 20260905212126 | 99 | 222 | 2.6 | 13.9 | 0.00 | 0.00 | 0.00 | 28 | 1010.4 |
| 20260905211621 | 99 | 318 | 8.7 | 13.0 | 0.00 | 0.00 | 0.00 | 28 | 1010.3 |
| 20260905211117 | 100 | 18 | 0.0 | 11.3 | 0.00 | 0.00 | 0.00 | 28 | 1010.6 |
| 20260905210613 | 100 | 82 | 2.6 | 13.0 | 0.00 | 0.00 | 0.00 | 27 | 1010.6 |
| 20260905210108 | 99 | 294 | 4.3 | 17.4 | 0.00 | 0.00 | 0.00 | 28 | 1010.6 |
| 20260905205607 | 99 | 256 | 3.5 | 13.9 | 0.00 | 0.00 | 0.00 | 29 | 1010.6 |
| 20260905205107 | 101 | 215 | 7.8 | 7.8 | 0.00 | 0.00 | 0.00 | 28 | 1010.8 |
| 20260905204606 | 101 | 297 | 1.7 | 6.1 | 0.00 | 0.00 | 0.00 | 28 | 1010.9 |
| 20260905204101 | 100 | 239 | 5.2 | 9.6 | 0.00 | 0.00 | 0.00 | 29 | 1010.6 |
| 20260905203556 | 101 | 264 | 1.7 | 6.1 | 0.00 | 0.00 | 0.00 | 28 | 1010.6 |
| 20260905203052 | 101 | 190 | 2.6 | 8.7 | 0.00 | 0.00 | 0.00 | 28 | 1010.7 |
| 20260905202547 | 100 | 196 | 2.6 | 9.6 | 0.00 | 0.00 | 0.00 | 29 | 1011.0 |
| 20260905202042 | 100 | 304 | 0.0 | 6.1 | 0.00 | 0.00 | 0.00 | 29 | 1010.9 |
| 20260905201538 | 99 | 315 | 0.0 | 15.6 | 0.00 | 0.00 | 0.00 | 30 | 1011.0 |
| 20260905201037 | 100 | 252 | 1.7 | 11.3 | 0.00 | 0.00 | 0.00 | 31 | 1010.9 |
| 20260905200533 | 100 | 251 | 3.5 | 5.2 | 0.00 | 0.00 | 0.00 | 27 | 1011.3 |
| 20260905200032 | 101 | 219 | 3.5 | 3.5 | 0.00 | 0.00 | 0.00 | 27 | 1011.2 |
| 20260905195526 | 98 | 167 | 2.6 | 6.1 | 0.00 | 0.00 | 0.00 | 29 | 1011.2 |
| 20260905195022 | 100 | 199 | 4.3 | 7.0 | 0.00 | 0.00 | 0.00 | 28 | 1011.4 |
| 20260905194521 | 100 | 170 | 7.0 | 7.0 | 0.00 | 0.00 | 0.00 | 28 | 1011.4 |
| 20260905194015 | 100 | 205 | 4.3 | 4.3 | 0.00 | 0.00 | 0.00 | 28 | 1011.8 |
| 20260905193510 | 99 | 270 | 0.0 | 5.2 | 0.00 | 0.00 | 0.00 | 30 | 1011.5 |
| 20260905193006 | 98 | 194 | 3.5 | 7.8 | 0.00 | 0.00 | 0.00 | 31 | 1011.3 |
| 20260905192501 | 99 | 124 | 1.7 | 3.5 | 0.00 | 0.00 | 0.00 | 30 | 1011.5 |
| 20260905191957 | 100 | 154 | 3.5 | 3.5 | 0.00 | 0.00 | 0.00 | 29 | 1011.5 |
| 20260905191455 | 99 | 105 | 0.0 | 7.0 | 0.00 | 0.00 | 0.00 | 30 | 1011.6 |
| 20260905190954 | 99 | 54 | 0.0 | 1.7 | 0.00 | 0.00 | 0.00 | 30 | 1011.6 |
| 20260905190452 | 97 | 29 | 0.9 | 5.2 | 0.00 | 0.00 | 0.00 | 31 | 1011.9 |
| 20260905185951 | 98 | 60 | 3.5 | 7.8 | 0.00 | 0.00 | 0.00 | 31 | 1012.1 |
| 20260905185447 | 99 | 68 | 3.5 | 4.3 | 0.00 | 0.00 | 0.00 | 31 | 1012.1 |
| 20260905184945 | 98 | 39 | 2.6 | 2.6 | 0.00 | 0.00 | 0.00 | 31 | 1012.0 |
| 20260905184440 | 96 | 46 | 3.5 | 7.0 | 0.00 | 0.00 | 0.00 | 33 | 1012.2 |
| 20260905183939 | 95 | 353 | 3.5 | 7.0 | 0.00 | 0.00 | 0.00 | 34 | 1012.4 |
| 20260905183433 | 97 | 115 | 4.3 | 6.1 | 0.00 | 0.00 | 0.00 | 33 | 1012.3 |
| 20260905182929 | 96 | 110 | 2.6 | 7.0 | 0.00 | 0.00 | 0.00 | 33 | 1012.5 |
| 20260905182428 | 96 | 270 | 0.0 | 1.7 | 0.00 | 0.00 | 0.00 | 34 | 1012.3 |
| 20260905181924 | 96 | 78 | 0.0 | 2.6 | 0.00 | 0.00 | 0.00 | 34 | 1012.6 |
| 20260905181418 | 96 | 90 | 0.9 | 2.6 | 0.00 | 0.00 | 0.00 | 34 | 1012.6 |
| 20260905180917 | 95 | 344 | 3.5 | 5.2 | 0.00 | 0.00 | 0.00 | 35 | 1012.7 |
| 20260905180413 | 94 | 35 | 3.5 | 5.2 | 0.00 | 0.00 | 0.00 | 36 | 1012.9 |
| 20260905175913 | 95 | 4 | 1.7 | 2.6 | 0.00 | 0.00 | 0.00 | 35 | 1013.0 |
| 20260905175412 | 95 | 42 | 5.2 | 5.2 | 0.00 | 0.00 | 0.00 | 35 | 1013.0 |
| 20260905174907 | 95 | 151 | 0.9 | 3.5 | 0.00 | 0.00 | 0.00 | 35 | 1013.0 |
| 20260905174403 | 93 | 346 | 0.0 | 6.1 | 0.00 | 0.00 | 0.00 | 37 | 1013.2 |
| 20260905173858 | 94 | 6 | 0.9 | 2.6 | 0.00 | 0.00 | 0.00 | 35 | 1013.2 |
| 20260905173355 | 93 | 339 | 4.3 | 6.1 | 0.00 | 0.00 | 0.00 | 37 | 1013.3 |
| 20260905172849 | 94 | 30 | 0.0 | 4.3 | 0.00 | 0.00 | 0.00 | 36 | 1013.1 |
| 20260905172347 | 94 | 104 | 4.3 | 5.2 | 0.00 | 0.00 | 0.00 | 36 | 1013.3 |
| 20260905171843 | 93 | 80 | 1.7 | 4.3 | 0.00 | 0.00 | 0.00 | 37 | 1013.2 |
| 20260905171340 | 93 | 90 | 1.7 | 2.6 | 0.00 | 0.00 | 0.00 | 37 | 1013.2 |
| 20260905170836 | 91 | 357 | 1.7 | 6.1 | 0.00 | 0.00 | 0.00 | 38 | 1013.5 |
| 20260905170332 | 91 | 11 | 4.3 | 6.1 | 0.00 | 0.00 | 0.00 | 38 | 1013.3 |
| 20260905165831 | 92 | 229 | 1.7 | 3.5 | 0.00 | 0.00 | 0.00 | 37 | 1013.5 |
| 20260905165327 | 93 | 8 | 1.7 | 2.6 | 0.00 | 0.00 | 0.00 | 37 | 1013.3 |
| 20260905164826 | 91 | 39 | 3.5 | 5.2 | 0.00 | 0.00 | 0.00 | 38 | 1013.6 |
| 20260905164321 | 92 | 294 | 1.7 | 2.6 | 0.00 | 0.00 | 0.00 | 37 | 1013.1 |
| 20260905163817 | 90 | 203 | 1.7 | 2.6 | 0.00 | 0.00 | 0.00 | 39 | 1013.6 |
| 20260905163313 | 89 | 5 | 4.3 | 4.3 | 0.00 | 0.00 | 0.00 | 40 | 1013.4 |
| 20260905162809 | 89 | 14 | 0.0 | 5.2 | 0.00 | 0.00 | 0.00 | 40 | 1013.6 |
| 20260905162309 | 87 | 17 | 2.6 | 6.1 | 0.00 | 0.00 | 0.00 | 42 | 1013.4 |
| 20260905161803 | 89 | 10 | 4.3 | 4.3 | 0.00 | 0.00 | 0.00 | 41 | 1013.8 |
| 20260905161303 | 88 | 348 | 2.6 | 3.5 | 0.00 | 0.00 | 0.00 | 41 | 1013.7 |
| 20260905160801 | 86 | 345 | 0.9 | 7.0 | 0.00 | 0.00 | 0.00 | 43 | 1013.7 |
| 20260905160255 | 87 | 38 | 2.6 | 7.0 | 0.00 | 0.00 | 0.00 | 43 | 1013.6 |
| 20260905155750 | 86 | 23 | 0.0 | 4.3 | 0.00 | 0.00 | 0.00 | 43 | 1013.9 |
| 20260905155249 | 86 | 66 | 0.0 | 3.5 | 0.00 | 0.00 | 0.00 | 44 | 1013.8 |
| 20260905154743 | 85 | 45 | 4.3 | 4.3 | 0.00 | 0.00 | 0.00 | 45 | 1013.5 |
| 20260905154239 | 85 | 32 | 2.6 | 4.3 | 0.00 | 0.00 | 0.00 | 44 | 1013.7 |
| 20260905153734 | 85 | 36 | 2.6 | 3.5 | 0.00 | 0.00 | 0.00 | 45 | 1013.8 |
| 20260905153230 | 85 | 135 | 1.7 | 3.5 | 0.00 | 0.00 | 0.00 | 45 | 1013.9 |
| 20260905152724 | 85 | 36 | 2.6 | 4.3 | 0.00 | 0.00 | 0.00 | 45 | 1013.8 |
| 20260905152219 | 85 | 54 | 3.5 | 3.5 | 0.00 | 0.00 | 0.00 | 45 | 1013.7 |
| 20260905151719 | 83 | 56 | 3.5 | 6.1 | 0.00 | 0.00 | 0.00 | 46 | 1013.8 |
| 20260905151215 | 83 | 17 | 4.3 | 4.3 | 0.00 | 0.00 | 0.00 | 47 | 1014.1 |
| 20260905150710 | 82 | 354 | 2.6 | 6.1 | 0.00 | 0.00 | 0.00 | 48 | 1013.8 |
| 20260905150209 | 82 | 11 | 2.6 | 4.3 | 0.00 | 0.00 | 0.00 | 49 | 1013.9 |
| 20260905145706 | 82 | 0 | 1.7 | 4.3 | 0.00 | 0.00 | 0.00 | 49 | 1013.9 |
| 20260905145202 | 81 | 32 | 1.7 | 3.5 | 0.00 | 0.00 | 0.00 | 51 | 1014.2 |
| 20260905144700 | 81 | 17 | 2.6 | 4.3 | 0.00 | 0.00 | 0.00 | 51 | 1014.1 |
| 20260905144155 | 80 | 2 | 3.5 | 3.5 | 0.00 | 0.00 | 0.00 | 52 | 1014.3 |
| 20260905143654 | 80 | 21 | 2.6 | 4.3 | 0.00 | 0.00 | 0.00 | 52 | 1013.9 |
| 20260905143149 | 80 | 20 | 2.6 | 4.3 | 0.00 | 0.00 | 0.00 | 53 | 1013.9 |
| 20260905142647 | 80 | 4 | 1.7 | 2.6 | 0.00 | 0.00 | 0.00 | 53 | 1013.9 |
| 20260905142147 | 80 | 3 | 2.6 | 2.6 | 0.00 | 0.00 | 0.00 | 53 | 1014.2 |
| 20260905141643 | 80 | 4 | 1.7 | 1.7 | 0.00 | 0.00 | 0.00 | 53 | 1013.9 |
| 20260905141139 | 81 | 0 | 0.0 | 1.7 | 0.00 | 0.00 | 0.00 | 51 | 1014.4 |
| 20260905140633 | 79 | 342 | 0.0 | 1.7 | 0.00 | 0.00 | 0.00 | 52 | 1014.1 |
| 20260905140133 | 80 | 90 | 0.9 | 1.7 | 0.00 | 0.00 | 0.00 | 52 | 1013.9 |
| 20260905135628 | 79 | 145 | 0.0 | 1.7 | 0.00 | 0.00 | 0.00 | 52 | 1014.2 |
| 20260905135124 | 79 | 90 | 0.0 | 0.9 | 0.00 | 0.00 | 0.00 | 53 | 1014.2 |
| 20260905134618 | 78 | 90 | 0.0 | 1.7 | 0.00 | 0.00 | 0.00 | 54 | 1014.2 |
| 20260905134117 | 76 | 106 | 1.7 | 2.6 | 0.00 | 0.00 | 0.00 | 56 | 1013.7 |
| 20260905133612 | 76 | 7 | 0.9 | 1.7 | 0.00 | 0.00 | 0.00 | 60 | 1014.1 |
| 20260905133107 | 75 | 0 | 0.0 | 3.5 | 0.00 | 0.00 | 0.00 | 61 | 1013.8 |
| 20260905132607 | 75 | 0 | 0.0 | 0.9 | 0.00 | 0.00 | 0.00 | 59 | 1013.5 |
| 20260905132101 | 73 | 106 | 0.0 | 1.7 | 0.00 | 0.00 | 0.00 | 62 | 1013.6 |
| 20260905131557 | 71 | 53 | 0.0 | 1.7 | 0.00 | 0.00 | 0.00 | 63 | 1013.6 |
| 20260905131052 | 70 | 3 | 1.7 | 2.6 | 0.00 | 0.00 | 0.00 | 64 | 1013.5 |
| 20260905130551 | 70 | 8 | 1.7 | 1.7 | 0.00 | 0.00 | 0.00 | 64 | 1013.3 |
| 20260905130046 | 70 | 48 | 1.7 | 2.6 | 0.00 | 0.00 | 0.00 | 65 | 1013.2 |
| 20260905125546 | 70 | 0 | 0.9 | 0.9 | 0.00 | 0.00 | 0.00 | 66 | 1013.2 |
| 20260905125041 | 70 | 0 | 0.0 | 1.7 | 0.00 | 0.00 | 0.00 | 65 | 1013.1 |
| 20260905124538 | 71 | 0 | 0.0 | 0.9 | 0.00 | 0.00 | 0.00 | 67 | 1013.1 |
| 20260905124033 | 70 | 82 | 0.0 | 0.9 | 0.00 | 0.00 | 0.00 | 66 | 1013.1 |
| 20260905123529 | 71 | 270 | 0.0 | 0.0 | 0.00 | 0.00 | 0.00 | 66 | 1013.0 |
| 20260905123026 | 71 | 270 | 0.0 | 0.0 | 0.00 | 0.00 | 0.00 | 66 | 1013.2 |
| 20260905122525 | 71 | 270 | 0.0 | 0.0 | 0.00 | 0.00 | 0.00 | 65 | 1013.0 |
| 20260905122020 | 71 | 345 | 0.0 | 0.0 | 0.00 | 0.00 | 0.00 | 63 | 1013.0 |
| 20260905121515 | 71 | 345 | 0.0 | 1.7 | 0.00 | 0.00 | 0.00 | 62 | 1012.7 |
| 20260905121015 | 71 | 355 | 0.9 | 2.6 | 0.00 | 0.00 | 0.00 | 62 | 1012.9 |
| 20260905120509 | 71 | 20 | 0.9 | 1.7 | 0.00 | 0.00 | 0.00 | 62 | 1013.0 |
| 20260905120004 | 71 | 40 | 1.7 | 1.7 | 0.00 | 0.00 | 0.00 | 62 | 1013.0 |
| 20260905115503 | 70 | 74 | 0.0 | 0.9 | 0.00 | 0.00 | 0.00 | 62 | 1012.7 |
| 20260905114958 | 70 | 84 | 0.9 | 0.9 | 0.00 | 0.00 | 0.00 | 62 | 1013.0 |
| 20260905114458 | 70 | 160 | 0.0 | 1.7 | 0.00 | 0.00 | 0.00 | 61 | 1013.0 |